Location: Berville
(49.1893°N, 2.0748°E)
Time: 19:56:29
(UTC+00:00)

FENGYUN 1C DEB - Pass Details

Date: 06 March 2024
Orbit: 768 x 960 km, 99.0° (Epoch: 13 April)

Event Time Altitude Azimuth Distance (km) Brightness Sun altitude
Exits shadow 21:12:32 60° 287° (WNW) 1,076 ? -33.2°
Drops below altitude 10° 21:17:50 10° 339° (NNW) 2,635 ? -33.9°
Sets 21:20:15 0° 343° (NNW) 3,557 ? -34.2°
